Volver al catálogo

COSMOS 2541

ActivoMilitarHEO
NORAD 44552·PAYLOAD·🇷🇺 Russia

Lanzado Sep 26, 2019 desde Plesetsk Cosmodrome

Loading…

Próximos Pases (próximas 24 horas)

TLE

ActualizadoSource: Space-Track

Época: Sep 14, 2026, 00:08 UTC

1 44552U 19065A   26257.00615412  .00000115  00000-0  00000-0 0  9999
2 44552  62.7132 148.6622 6508130 272.0599  20.2644  2.00578682 51001

Sigue COSMOS 2541 en tiempo real con AllMySat

Download on the App Store